Wind_Speed
5 7 9 11 9 11 12 6 11 14 14 11 14 20 17 15 16 15 17 19 19 20 20 20 20 20 22 24 23 19 15 18 14 23 30 29 24 27 28 19 19 18 15
8 8 10 11 12 11 13 11 12 12 14 13 15 16 16 14 14 14 19 18 20 20 20 21 23 26 26 22 13 14 18 16 20 23 22 21 23 28 28 23 17 13 16
10 10 12 13 15 10 12 13 14 14 17 19 20 17 16 16 17 17 19 18 19 21 21 23 23 23 22 20 15 16 21 18 18 26 29 28 26 24 22 18 17 15 11
11 8 10 13 17 16 10 14 11 12 15 16 17 17 16 15 16 16 15 18 16 13 17 18 18 19 21 20 16 14 21 23 34 32 30 26 25 23 19 18 16 14 12
8 9 7 9 13 15 15 10 10 13 12 20 14 15 11 13 17 20 16 18 20 14 14 14 15 18 16 14 18 29 32 32 33 31 25 23 23 20 18 14 10 9 11
8 10 9 9 12 13 16 14 14 12 16 16 17 13 9 8 8 12 18 22 22 21 13 10 14 9 22 31 32 32 31 29 25 23 22 19 17 14 10 6 6 9 12
8 8 9 9 12 14 17 22 22 22 21 20 21 19 19 23 21 16 17 19 21 17 14 15 23 31 34 33 31 28 24 21 22 21 19 17 13 9 6 7 10 12 15
8 9 12 11 13 16 16 18 19 20 20 20 22 22 22 25 26 25 27 25 22 21 30 28 29 26 25 23 23 25 24 21 19 17 14 10 9 8 7 10 14 16 20
7 10 12 11 12 14 16 16 17 19 19 20 20 21 22 24 24 26 24 26 26 25 28 27 24 23 22 21 19 19 17 15 12 10 7 6 8 5 9 13 17 20 23
6 8 11 13 12 14 15 15 16 18 18 19 20 19 20 21 21 22 23 23 23 22 23 19 18 19 19 18 15 13 10 7 4 4 5 7 9 11 14 16 19 23 25
6 7 9 11 11 11 12 11 10 10 11 13 14 17 16 17 17 17 16 17 17 17 16 16 15 13 12 10 8 5 4 4 4 6 8 11 13 15 18 20 23 26 29
9 7 8 9 8 8 9 9 10 11 11 12 12 14 16 15 14 12 12 12 11 11 10 10 9 7 5 2 1 3 5 6 8 11 13 14 17 20 22 26 29 30 34
11 10 9 9 9 8 7 7 9 12 14 14 14 13 12 12 11 11 10 9 7 6 4 3 2 1 2 4 6 8 9 10 13 14 16 19 23 27 28 29 31 34 38
13 12 11 11 11 12 10 9 8 10 11 10 10 9 8 8 7 7 6 5 5 4 2 1 1 2 4 6 8 10 13 14 15 18 20 24 27 28 28 30 32 37 41
14 14 14 12 11 11 10 9 10 11 8 6 4 4 3 2 2 2 1 1 2 3 4 6 8 8 10 12 15 17 18 19 22 23 24 25 26 28 30 32 36 40 43
16 15 16 16 15 13 11 11 11 11 11 9 6 4 4 4 5 5 5 6 7 7 7 7 9 10 13 18 18 19 20 21 23 22 23 25 28 29 32 35 38 43 47
18 18 18 17 17 17 16 14 13 12 12 11 11 11 11 12 11 11 11 10 11 12 12 12 12 11 14 19 19 18 19 20 21 23 26 28 29 32 35 37 40 48 48
19 21 22 20 18 17 17 18 17 16 16 15 15 16 16 14 15 15 15 14 16 18 16 15 15 17 19 21 22 21 22 23 25 27 29 30 32 35 38 39 47 46 46
20 18 20 24 21 19 17 18 17 17 17 17 16 17 18 19 18 17 16 15 15 16 16 16 19 22 25 26 27 28 29 31 33 33 33 33 36 38 39 45 44 44 45
21 22 21 21 23 23 19 17 19 20 20 20 20 19 20 20 21 21 19 17 15 16 18 20 24 27 30 33 35 35 33 34 35 33 32 35 36 37 43 39 42 46 46
25 25 24 22 24 26 25 23 21 21 21 20 19 20 20 20 21 21 20 19 20 21 27 34 36 41 49 42 39 35 34 35 36 35 35 35 36 39 37 39 41 47 45
21 24 23 22 24 25 24 25 24 21 20 20 21 22 24 23 22 23 24 25 26 25 26 30 27 31 33 42 40 38 39 39 42 39 38 42 38 41 44 42 42 51 45
25 24 25 23 22 23 24 27 28 27 25 24 24 26 26 27 27 27 32 27 28 30 30 34 30 31 29 27 31 40 49 42 46 47 40 42 41 48 49 40 45 47 44
25 25 24 23 26 28 28 29 31 32 33 32 30 28 30 31 33 34 33 32 35 34 29 29 27 28 27 32 36 36 42 49 52 48 41 39 38 45 38 45 54 43 49
29 28 27 26 25 24 28 29 30 29 29 29 32 33 33 34 34 34 28 30 33 31 29 32 33 34 35 39 43 47 52 53 47 46 37 37 39 43 47 53 49 47 50
31 31 33 34 33 30 29 30 33 33 32 32 29 29 31 31 30 28 30 32 32 34 36 36 37 34 36 45 40 40 52 38 36 34 35 36 36 39 44 51 55 50 44
Wind_Direction
11 7 3 16 16 2 24 35 23 43 67 82 119 147 142 143 150 160 156 158 163 166 169 171 173 172 175 174 186 185 166 173 179 176 159 179 180 176 186 200 197 182 175
19 25 32 36 34 44 54 65 48 71 85 95 117 129 144 150 144 144 147 160 168 173 174 175 179 180 179 174 171 185 180 173 174 165 170 168 168 176 183 186 179 164 188
40 61 42 55 50 67 52 67 56 100 109 93 100 120 135 139 139 145 154 157 162 170 172 172 174 177 169 181 189 186 179 189 185 164 164 162 166 170 175 165 169 179 191
34 63 49 65 57 57 75 79 74 91 101 106 93 99 118 131 146 145 157 150 148 160 169 163 173 177 178 197 210 201 186 169 158 159 158 163 158 146 157 167 175 191 214
46 60 59 67 55 56 63 64 91 94 82 85 101 99 117 147 167 169 177 158 164 156 159 167 181 182 193 203 174 155 150 154 162 161 157 143 150 158 166 171 185 219 248
67 68 69 56 69 68 69 78 104 86 77 100 71 92 81 112 146 175 155 160 159 142 134 147 181 198 156 134 141 149 144 146 141 139 141 145 151 161 170 183 237 261 276
76 85 81 71 76 84 83 85 88 89 86 81 74 83 95 88 87 103 128 173 167 163 155 179 169 146 145 142 141 138 137 143 143 139 145 160 167 170 185 230 268 273 279
83 95 96 89 85 87 86 86 90 90 88 84 80 81 82 84 83 90 107 123 143 143 138 134 137 131 130 134 139 140 143 146 148 151 159 171 188 202 226 261 279 298 307
104 108 112 110 105 94 89 88 86 87 88 89 86 84 87 90 92 91 90 95 104 120 119 124 129 139 138 136 137 135 143 151 151 158 176 207 245 255 277 293 305 310 307
135 126 125 125 121 115 106 94 89 91 90 90 90 86 85 86 90 92 100 108 109 113 121 123 128 133 136 139 140 147 150 153 167 216 238 261 282 295 297 299 296 293 294
157 149 137 137 136 127 117 110 96 81 78 79 85 91 90 91 91 97 98 103 108 112 119 123 127 130 132 131 139 165 183 216 246 273 275 283 290 292 293 292 292 289 295
183 168 162 158 158 146 131 119 105 107 104 95 84 81 86 89 94 95 96 101 106 111 117 122 128 122 95 77 311 312 298 294 292 296 295 290 289 291 290 287 293 301 303
195 186 179 173 173 172 154 132 125 124 123 117 109 100 95 90 80 74 81 94 98 99 95 91 99 298 300 308 311 308 301 288 283 286 292 293 292 290 291 293 300 302 304
203 189 189 185 179 170 166 160 157 145 137 132 126 117 108 99 98 104 111 109 102 94 77 43 308 294 297 290 284 280 275 280 284 284 281 283 284 289 298 304 307 308 310
212 206 195 193 192 188 182 176 171 163 161 157 153 132 109 82 66 46 47 185 191 202 217 225 237 252 264 266 264 264 270 271 273 274 281 285 292 299 303 310 312 314 318
215 223 216 212 205 203 199 202 199 194 192 193 211 239 264 279 290 291 291 286 275 271 265 262 259 256 255 255 259 266 273 275 277 285 291 296 297 301 307 312 316 318 317
217 223 227 226 224 221 220 215 215 218 225 234 245 259 274 283 282 280 282 282 275 270 275 280 282 278 267 272 280 280 278 282 289 293 294 298 303 308 312 316 316 319 319
229 230 227 225 230 233 230 230 230 231 235 245 256 266 274 273 275 280 286 288 277 279 284 287 285 279 278 282 284 286 288 291 296 298 301 303 303 307 310 313 316 314 315
232 232 231 230 233 234 244 240 240 241 247 251 256 260 263 269 276 282 285 278 281 288 293 291 282 281 282 283 284 287 290 292 293 296 302 303 305 307 310 312 313 316 316
231 232 244 240 230 232 236 236 239 243 246 250 252 254 259 264 272 277 279 277 281 292 300 300 297 287 283 282 285 289 288 291 293 298 301 303 303 307 308 311 320 321 318
243 241 239 240 244 239 241 242 246 245 247 246 251 255 259 259 262 272 279 282 284 293 303 316 318 301 302 280 278 287 291 289 293 297 297 298 300 307 308 314 321 324 315
247 239 240 244 237 243 244 244 250 249 248 251 256 260 263 263 268 271 277 280 287 296 290 302 303 294 291 290 279 280 284 290 295 291 293 296 297 303 310 307 314 313 305
247 248 246 249 248 244 239 242 247 254 258 260 258 263 267 269 269 272 283 292 287 282 293 291 293 306 307 296 291 283 279 282 292 292 283 291 295 297 305 304 304 301 297
245 247 246 247 248 250 252 252 251 253 261 264 260 258 264 269 273 280 284 282 279 281 279 275 293 287 279 280 286 291 288 286 277 284 281 295 302 302 298 299 298 291 305
236 243 249 250 251 253 255 256 257 259 262 264 260 259 257 263 271 275 275 276 276 277 278 280 281 280 281 279 282 279 288 278 289 280 288 294 295 296 295 291 287 294 301
243 242 244 250 254 258 262 265 264 264 267 272 269 261 261 262 259 263 268 272 275 277 280 281 279 280 285 290 280 281 290 285 289 282 280 280 291 291 289 291 283 295 300
Height
5729 5727 5724 5722 5718 5715 5711 5708 5706 5704 5700 5699 5699 5701 5704 5706 5708 5711 5714 5717 5721 5725 5731 5735 5740 5745 5748 5752 5755 5759 5763 5767 5771 5773 5778 5784 5787 5791 5797 5801 5805 5807 5809
5730 5728 5725 5723 5720 5717 5714 5710 5708 5707 5705 5704 5703 5705 5706 5708 5711 5713 5715 5719 5722 5726 5730 5734 5739 5744 5748 5752 5755 5759 5763 5767 5770 5774 5779 5783 5787 5791 5796 5800 5802 5805 5808
5732 5730 5727 5725 5723 5720 5718 5715 5712 5710 5710 5709 5708 5710 5710 5712 5714 5716 5719 5721 5724 5727 5731 5735 5739 5744 5749 5752 5756 5759 5763 5766 5770 5775 5779 5783 5788 5790 5795 5798 5803 5806 5809
5734 5732 5730 5728 5726 5724 5721 5720 5718 5715 5714 5714 5714 5714 5714 5716 5717 5719 5721 5724 5728 5730 5733 5737 5741 5744 5749 5753 5756 5759 5762 5766 5771 5776 5780 5784 5788 5792 5796 5800 5803 5805 5809
5736 5734 5732 5731 5729 5728 5726 5723 5722 5721 5719 5718 5718 5718 5717 5718 5717 5719 5723 5727 5730 5733 5735 5739 5742 5745 5748 5751 5754 5760 5764 5769 5774 5777 5781 5785 5790 5795 5798 5799 5802 5806 5806
5738 5736 5735 5733 5732 5731 5730 5726 5726 5726 5724 5723 5722 5722 5721 5719 5719 5720 5724 5728 5732 5735 5738 5741 5744 5745 5749 5752 5756 5761 5765 5770 5773 5778 5783 5787 5791 5794 5796 5796 5800 5802 5803
5740 5739 5738 5736 5735 5734 5734 5733 5732 5731 5730 5729 5728 5727 5726 5726 5725 5724 5725 5729 5734 5737 5740 5743 5746 5750 5752 5757 5761 5764 5768 5774 5778 5780 5784 5789 5791 5793 5794 5796 5798 5799 5799
5742 5741 5741 5740 5739 5738 5738 5738 5737 5736 5735 5735 5735 5734 5733 5733 5732 5731 5732 5733 5738 5742 5745 5748 5751 5755 5758 5762 5766 5769 5774 5779 5781 5784 5787 5790 5793 5794 5793 5794 5795 5794 5793
5744 5743 5744 5744 5743 5742 5742 5742 5742 5742 5741 5741 5741 5741 5740 5740 5740 5740 5741 5743 5746 5748 5751 5755 5758 5761 5763 5766 5769 5771 5776 5780 5782 5784 5787 5790 5792 5788 5791 5791 5788 5785 5785
5745 5746 5746 5747 5747 5747 5747 5747 5747 5747 5747 5746 5746 5746 5746 5747 5747 5747 5749 5751 5753 5755 5759 5762 5765 5767 5769 5771 5774 5776 5778 5779 5780 5783 5785 5786 5785 5785 5786 5784 5785 5785 5783
5746 5747 5747 5748 5750 5750 5751 5752 5752 5751 5751 5751 5751 5752 5752 5753 5753 5754 5755 5756 5758 5760 5763 5766 5768 5771 5772 5773 5775 5777 5778 5779 5781 5782 5782 5783 5782 5782 5782 5780 5779 5780 5778
5747 5748 5748 5749 5750 5752 5753 5753 5754 5755 5755 5755 5755 5755 5756 5756 5757 5758 5759 5760 5761 5763 5765 5766 5768 5768 5768 5771 5774 5774 5776 5778 5778 5778 5780 5779 5779 5779 5778 5778 5774 5769 5768
5747 5748 5749 5750 5751 5752 5753 5754 5755 5757 5758 5759 5759 5760 5760 5761 5761 5761 5762 5763 5764 5765 5765 5766 5768 5769 5770 5772 5772 5772 5773 5774 5775 5775 5775 5775 5774 5773 5770 5767 5765 5764 5760
5746 5748 5749 5750 5752 5753 5754 5756 5756 5757 5759 5761 5762 5763 5763 5763 5764 5765 5766 5767 5767 5768 5769 5769 5769 5769 5770 5770 5770 5771 5772 5772 5772 5773 5772 5772 5771 5768 5763 5761 5758 5754 5750
5744 5746 5749 5750 5751 5753 5755 5757 5758 5759 5760 5761 5762 5763 5765 5765 5765 5766 5766 5767 5768 5769 5769 5770 5771 5769 5769 5769 5770 5770 5770 5769 5769 5769 5766 5764 5762 5759 5757 5752 5747 5742 5735
5742 5744 5746 5748 5750 5752 5754 5755 5757 5759 5760 5761 5762 5762 5763 5764 5764 5765 5765 5765 5765 5765 5766 5767 5767 5768 5768 5767 5767 5765 5764 5764 5763 5760 5760 5758 5756 5752 5747 5741 5735 5731 5726
5739 5741 5743 5745 5747 5749 5751 5753 5755 5756 5758 5760 5760 5761 5761 5762 5762 5761 5762 5762 5761 5761 5762 5762 5763 5762 5760 5758 5758 5759 5759 5758 5757 5756 5754 5751 5746 5740 5735 5731 5727 5722 5716
5734 5736 5738 5741 5743 5745 5747 5749 5751 5753 5754 5755 5756 5756 5756 5757 5757 5757 5757 5758 5757 5756 5757 5758 5758 5757 5756 5754 5753 5752 5751 5750 5748 5746 5743 5739 5735 5731 5727 5723 5718 5713 5707
5729 5731 5733 5736 5738 5740 5742 5744 5746 5748 5749 5750 5751 5751 5751 5751 5752 5753 5753 5754 5753 5753 5753 5753 5752 5751 5750 5749 5747 5746 5744 5741 5738 5735 5733 5729 5725 5722 5718 5714 5709 5702 5695
5724 5726 5728 5729 5732 5734 5737 5739 5740 5741 5743 5744 5745 5746 5746 5746 5746 5747 5747 5747 5748 5748 5747 5747 5745 5743 5740 5738 5737 5736 5735 5732 5729 5728 5726 5722 5719 5714 5710 5704 5698 5692 5685
5717 5719 5722 5723 5726 5728 5730 5733 5734 5735 5736 5737 5738 5739 5739 5740 5741 5741 5741 5741 5740 5740 5739 5737 5735 5733 5730 5728 5727 5727 5725 5723 5722 5720 5717 5713 5709 5705 5699 5693 5687 5682 5676
5711 5712 5715 5717 5719 5721 5724 5726 5728 5729 5730 5731 5731 5732 5732 5733 5735 5735 5734 5733 5733 5732 5731 5729 5726 5723 5721 5720 5719 5718 5716 5715 5713 5710 5706 5703 5699 5695 5688 5683 5677 5673 5667
5705 5706 5708 5710 5712 5714 5716 5719 5722 5723 5724 5725 5725 5724 5724 5725 5725 5726 5725 5724 5724 5723 5722 5720 5717 5716 5713 5711 5710 5708 5704 5701 5698 5696 5694 5692 5688 5684 5678 5672 5667 5662 5657
5698 5700 5701 5703 5705 5706 5709 5711 5713 5714 5715 5716 5716 5718 5716 5715 5715 5715 5715 5715 5713 5711 5711 5710 5706 5705 5704 5704 5701 5698 5695 5693 5685 5683 5682 5680 5675 5671 5666 5661 5658 5652 5647
5691 5692 5694 5696 5698 5700 5701 5701 5702 5704 5706 5707 5707 5707 5708 5707 5707 5704 5704 5704 5702 5701 5701 5699 5697 5694 5693 5691 5689 5687 5685 5679 5674 5669 5669 5667 5664 5660 5655 5652 5647 5641 5635
5680 5682 5684 5686 5689 5691 5692 5692 5693 5693 5695 5696 5696 5697 5697 5697 5697 5696 5695 5694 5693 5691 5688 5687 5685 5683 5681 5678 5675 5674 5671 5668 5665 5661 5659 5656 5652 5649 5646 5642 5636 5630 5626